Total_Precipitation_Accumulation
1.37 1.43 1.35 1.36 1.38 1.36 1.33 1.40 1.46 1.52 1.61 1.60 1.61 1.63 1.63 1.70 1.76 1.85 1.95 2.08 2.07 2.07 1.95 1.99 2.13 2.24 2.45 2.49 2.46 2.44 2.44 2.37 2.22 2.08 1.83 1.62 1.58 1.68 1.76 1.63 1.65 1.70 1.61
1.46 1.40 1.34 1.44 1.49 1.54 1.52 1.47 1.49 1.48 1.45 1.50 1.59 1.53 1.51 1.56 1.64 1.76 1.84 1.86 1.90 1.84 1.74 1.77 1.89 1.98 2.14 2.27 2.39 2.30 2.33 2.32 2.28 2.22 1.99 1.79 1.70 1.70 1.77 1.73 1.60 1.58 1.59
1.47 1.49 1.38 1.31 1.38 1.45 1.52 1.49 1.46 1.44 1.43 1.50 1.60 1.66 1.55 1.45 1.53 1.61 1.69 1.70 1.67 1.57 1.54 1.59 1.66 1.75 1.86 1.98 2.09 2.18 2.22 2.21 2.30 2.26 2.06 1.87 1.71 1.66 1.71 1.65 1.59 1.66 1.57
1.49 1.47 1.45 1.43 1.48 1.45 1.40 1.38 1.37 1.35 1.30 1.33 1.44 1.52 1.54 1.47 1.41 1.39 1.39 1.56 1.56 1.46 1.34 1.32 1.35 1.38 1.51 1.65 1.77 1.93 2.09 2.23 2.30 2.32 2.16 1.92 1.73 1.69 1.77 1.81 1.78 1.68 1.67
1.52 1.51 1.44 1.41 1.39 1.41 1.39 1.26 1.22 1.14 1.12 1.18 1.33 1.49 1.54 1.50 1.50 1.48 1.37 1.41 1.47 1.49 1.42 1.30 1.19 1.20 1.33 1.43 1.49 1.74 1.95 2.11 2.23 2.28 2.18 2.00 1.84 1.76 1.73 1.73 1.79 1.87 1.87
1.29 1.34 1.44 1.43 1.30 1.24 1.23 1.21 1.13 1.05 1.02 1.02 1.11 1.25 1.39 1.37 1.57 1.62 1.50 1.36 1.36 1.37 1.37 1.34 1.34 1.31 1.19 1.15 1.23 1.40 1.64 1.83 1.99 2.10 2.12 1.93 1.74 1.72 1.79 1.82 1.81 1.86 1.90
1.18 1.22 1.28 1.30 1.20 1.14 1.08 1.04 1.02 0.97 1.00 1.00 1.08 1.19 1.32 1.52 1.63 1.46 1.52 1.45 1.38 1.38 1.33 1.32 1.34 1.31 1.39 1.23 1.20 1.20 1.22 1.39 1.65 1.86 1.88 1.78 1.82 1.76 1.76 1.73 1.70 1.68 1.69
1.05 1.09 1.06 1.06 1.06 1.05 0.96 0.94 0.95 0.97 1.00 1.02 1.09 1.17 1.25 1.47 1.58 1.40 1.59 1.60 1.55 1.49 1.43 1.45 1.49 1.50 1.43 1.55 1.51 1.38 1.26 1.22 1.34 1.29 1.35 1.65 1.80 1.86 1.88 1.89 1.91 1.81 1.72
0.85 0.90 0.91 0.91 0.92 0.93 0.91 1.01 1.03 1.01 1.02 1.03 1.02 1.03 1.06 1.18 1.34 1.28 1.42 1.52 1.61 1.59 1.46 1.42 1.46 1.46 1.71 1.82 1.64 1.54 1.42 1.32 1.52 1.55 1.54 1.63 1.74 1.77 1.76 1.82 1.87 1.83 1.74
0.72 0.77 0.83 0.86 0.89 0.95 1.11 1.22 1.24 1.17 1.06 0.99 0.96 0.92 0.93 0.97 1.20 1.11 1.23 1.28 1.43 1.57 1.54 1.47 1.64 1.56 1.62 1.62 1.51 1.65 1.56 1.40 1.33 1.31 1.31 1.36 1.41 1.50 1.59 1.56 1.69 1.74 1.65
0.55 0.65 0.78 0.90 0.94 1.06 1.23 1.27 1.23 1.16 1.04 0.93 0.90 0.89 0.88 0.96 1.19 1.17 1.24 1.26 1.34 1.43 1.46 1.46 1.43 1.59 1.44 1.43 1.45 1.51 1.64 1.61 1.56 1.56 1.47 1.37 1.32 1.33 1.32 1.38 1.52 1.62 1.63
0.52 0.56 0.65 0.80 0.92 1.06 1.21 1.20 1.19 1.18 1.07 0.95 0.93 0.92 0.94 1.05 1.13 1.17 1.21 1.28 1.35 1.35 1.29 1.17 1.18 1.35 1.24 1.23 1.23 1.33 1.53 1.56 1.51 1.57 1.51 1.40 1.30 1.24 1.23 1.26 1.40 1.49 1.49
0.48 0.47 0.52 0.63 0.77 0.94 1.05 1.07 1.08 1.10 1.05 0.98 0.93 0.90 0.93 1.01 1.15 1.33 1.22 1.14 1.13 1.13 1.11 1.15 1.09 1.08 1.08 1.01 1.06 1.21 1.29 1.42 1.51 1.53 1.40 1.28 1.24 1.26 1.28 1.29 1.29 1.37 1.42
0.43 0.47 0.48 0.50 0.54 0.64 0.73 0.81 0.89 0.92 0.91 0.90 0.91 0.90 0.93 0.95 0.96 1.08 1.15 1.07 1.00 0.96 0.94 0.88 0.89 0.91 0.92 0.91 0.92 0.94 1.03 1.31 1.53 1.48 1.37 1.29 1.28 1.32 1.38 1.41 1.39 1.35 1.40
0.44 0.49 0.50 0.52 0.55 0.57 0.59 0.64 0.72 0.74 0.84 0.90 0.89 0.91 0.90 0.89 0.92 1.06 1.07 1.03 1.06 1.09 1.10 1.01 0.96 0.90 0.89 0.89 0.88 0.95 1.09 1.24 1.41 1.36 1.38 1.33 1.34 1.40 1.41 1.45 1.54 1.52 1.46
0.42 0.42 0.43 0.46 0.51 0.53 0.55 0.59 0.67 0.67 0.75 0.77 0.77 0.77 0.73 0.80 0.90 0.91 0.92 0.96 1.02 1.13 1.17 1.11 1.14 1.10 1.07 1.04 1.00 0.96 0.99 1.09 1.19 1.29 1.32 1.35 1.37 1.40 1.40 1.43 1.50 1.53 1.50
0.42 0.41 0.41 0.41 0.47 0.53 0.54 0.59 0.62 0.59 0.59 0.60 0.63 0.67 0.65 0.66 0.68 0.69 0.76 0.86 0.94 1.05 1.05 1.04 1.08 1.09 1.07 1.06 1.03 1.00 0.99 1.00 1.07 1.19 1.34 1.44 1.47 1.49 1.52 1.52 1.52 1.53 1.47
0.47 0.50 0.49 0.49 0.51 0.52 0.58 0.63 0.62 0.61 0.56 0.49 0.50 0.55 0.57 0.61 0.62 0.62 0.63 0.69 0.72 0.81 0.89 0.98 1.01 1.05 1.04 1.03 1.00 0.97 0.96 0.96 1.01 1.07 1.19 1.33 1.51 1.63 1.65 1.64 1.63 1.64 1.61
0.47 0.49 0.52 0.55 0.55 0.56 0.59 0.65 0.68 0.64 0.56 0.52 0.49 0.49 0.56 0.59 0.62 0.66 0.65 0.59 0.60 0.65 0.71 0.82 0.89 0.94 0.94 0.97 1.00 1.03 1.04 1.03 1.02 1.04 1.08 1.13 1.26 1.45 1.57 1.63 1.70 1.83 1.80
0.44 0.51 0.53 0.55 0.59 0.63 0.62 0.62 0.62 0.65 0.62 0.57 0.54 0.53 0.57 0.58 0.55 0.54 0.57 0.61 0.66 0.70 0.71 0.76 0.82 0.88 0.93 0.97 1.00 1.02 1.02 1.02 1.03 1.05 1.07 1.11 1.17 1.26 1.35 1.44 1.53 1.65 1.73
0.45 0.48 0.52 0.51 0.51 0.56 0.58 0.58 0.59 0.59 0.59 0.54 0.52 0.54 0.58 0.58 0.60 0.57 0.58 0.61 0.65 0.69 0.71 0.73 0.75 0.81 0.86 0.93 1.07 1.13 1.10 1.07 1.07 1.11 1.18 1.21 1.22 1.27 1.27 1.32 1.37 1.46 1.56
0.48 0.46 0.43 0.43 0.46 0.49 0.52 0.53 0.54 0.57 0.56 0.53 0.50 0.50 0.55 0.55 0.55 0.55 0.55 0.55 0.56 0.60 0.65 0.69 0.67 0.66 0.72 0.82 0.97 1.16 1.23 1.16 1.11 1.15 1.23 1.27 1.29 1.30 1.33 1.37 1.42 1.48 1.51
0.43 0.45 0.45 0.45 0.45 0.49 0.53 0.52 0.52 0.53 0.54 0.53 0.54 0.53 0.51 0.51 0.51 0.50 0.51 0.53 0.53 0.54 0.59 0.64 0.63 0.64 0.66 0.72 0.84 1.01 1.12 1.20 1.27 1.31 1.34 1.36 1.34 1.34 1.38 1.39 1.39 1.47 1.52
0.39 0.38 0.42 0.47 0.50 0.54 0.55 0.56 0.56 0.54 0.56 0.55 0.53 0.54 0.53 0.53 0.51 0.48 0.48 0.51 0.54 0.55 0.58 0.61 0.63 0.65 0.69 0.72 0.73 0.80 0.89 0.98 1.07 1.16 1.26 1.36 1.37 1.36 1.40 1.43 1.41 1.43 1.50
0.40 0.39 0.41 0.47 0.49 0.51 0.54 0.59 0.66 0.65 0.62 0.58 0.55 0.53 0.52 0.52 0.54 0.52 0.51 0.54 0.57 0.59 0.56 0.55 0.57 0.62 0.68 0.72 0.73 0.78 0.98 1.04 1.03 1.05 1.13 1.26 1.32 1.36 1.42 1.49 1.55 1.58 1.58
0.43 0.42 0.42 0.45 0.48 0.49 0.52 0.58 0.64 0.68 0.67 0.64 0.62 0.61 0.60 0.57 0.58 0.59 0.58 0.60 0.62 0.62 0.62 0.62 0.62 0.64 0.68 0.73 0.77 0.86 0.99 0.97 0.99 1.09 1.12 1.16 1.25 1.29 1.37 1.50 1.56 1.64 1.69